TimeIST,TemperatureF,Dew PointF,Humidity,Sea Level PressureIn,VisibilityMPH,Wind Direction,Wind SpeedMPH,Gust SpeedMPH,PrecipitationIn,Events,Conditions,WindDirDegrees,DateUTC
12:00 AM,51.8,51.8,100,30.21,6.2,ENE,5.8,-,N/A,,Mostly Cloudy,70,2012-10-22 23:00:00
12:30 AM,51.8,51.8,100,30.21,6.2,East,6.9,-,N/A,,Mostly Cloudy,80,2012-10-22 23:30:00
1:00 AM,52,52,98,30.25,7,East,4.5,,,,Mist,80,2012-10-23 00:00:00
1:00 AM,51.8,51.8,100,30.24,6.2,East,4.6,-,N/A,,Mostly Cloudy,80,2012-10-23 00:00:00
1:30 AM,51.8,51.8,100,30.24,6.2,East,5.8,-,N/A,,Mostly Cloudy,80,2012-10-23 00:30:00
2:00 AM,51.8,51.8,100,30.24,6.2,ENE,5.8,-,N/A,,Mostly Cloudy,60,2012-10-23 01:00:00
2:30 AM,51.8,51.8,100,30.21,6.2,ENE,4.6,-,N/A,,Light Drizzle,70,2012-10-23 01:30:00
3:00 AM,51.8,51.8,100,30.24,5.6,East,3.5,-,N/A,,Light Drizzle,80,2012-10-23 02:00:00
3:30 AM,51.8,51.8,100,30.24,5.6,ENE,4.6,-,N/A,,Light Drizzle,70,2012-10-23 02:30:00
4:00 AM,51.8,51.8,100,30.24,5.6,East,4.6,-,N/A,,Mostly Cloudy,80,2012-10-23 03:00:00
4:30 AM,51.8,51.8,100,30.21,5.6,ENE,5.8,-,N/A,,Light Drizzle,60,2012-10-23 03:30:00
5:00 AM,51.8,51.8,100,30.21,-9999.0,ENE,6.9,-,N/A,,Light Drizzle,60,2012-10-23 04:00:00
5:30 AM,51.8,51.8,100,30.24,5.6,ENE,5.8,-,N/A,,Mostly Cloudy,70,2012-10-23 04:30:00
6:00 AM,51.8,51.8,100,30.24,5.6,ENE,5.8,-,N/A,,Mostly Cloudy,70,2012-10-23 05:00:00
6:30 AM,51.8,51.8,100,30.21,5.6,ENE,6.9,-,N/A,,Mostly Cloudy,70,2012-10-23 05:30:00
7:00 AM,52,52,98,30.26,6,East,6.7,,,Rain,Light Drizzle,80,2012-10-23 06:00:00
7:00 AM,51.8,51.8,100,30.24,5.6,East,5.8,-,N/A,,Mostly Cloudy,80,2012-10-23 06:00:00
7:30 AM,51.8,51.8,100,30.24,5.6,East,4.6,-,N/A,,Mostly Cloudy,90,2012-10-23 06:30:00
8:00 AM,51.8,51.8,100,30.24,4.3,ENE,5.8,-,N/A,,Overcast,70,2012-10-23 07:00:00
8:30 AM,51.8,51.8,100,30.27,3.7,NE,4.6,-,N/A,,Overcast,40,2012-10-23 07:30:00
9:00 AM,51.8,51.8,100,30.27,3.7,NE,4.6,-,N/A,,Overcast,50,2012-10-23 08:00:00
9:30 AM,53.6,51.8,94,30.27,3.7,ENE,5.8,-,N/A,,Overcast,70,2012-10-23 08:30:00
10:00 AM,53.6,51.8,94,30.27,5.0,ENE,5.8,-,N/A,,Overcast,60,2012-10-23 09:00:00
10:30 AM,53.6,51.8,94,30.27,5.6,ENE,4.6,-,N/A,,Mostly Cloudy,70,2012-10-23 09:30:00
11:00 AM,53.6,51.8,94,30.27,5.6,ENE,5.8,-,N/A,,Mostly Cloudy,60,2012-10-23 10:00:00
11:30 AM,53.6,51.8,94,30.27,5.6,NE,5.8,-,N/A,,Mostly Cloudy,50,2012-10-23 10:30:00
12:00 PM,55.4,51.8,88,30.30,5.6,NE,6.9,-,N/A,,Mostly Cloudy,50,2012-10-23 11:00:00
12:30 PM,55.4,51.8,88,30.30,6.2,NE,5.8,-,N/A,,Mostly Cloudy,50,2012-10-23 11:30:00
1:00 PM,56,53,84,30.30,7,NE,6.7,,,,Mist,50,2012-10-23 12:00:00
1:00 PM,55.4,51.8,88,30.30,6.2,NE,5.8,-,N/A,,Mostly Cloudy,50,2012-10-23 12:00:00
1:30 PM,55.4,53.6,94,30.27,5.6,ENE,6.9,-,N/A,,Mostly Cloudy,70,2012-10-23 12:30:00
2:00 PM,55.4,53.6,94,30.27,5.6,East,5.8,-,N/A,,Mostly Cloudy,90,2012-10-23 13:00:00
2:30 PM,55.4,53.6,94,30.27,5.0,ESE,5.8,-,N/A,,Mostly Cloudy,120,2012-10-23 13:30:00
3:00 PM,55.4,53.6,94,30.27,4.3,ESE,3.5,-,N/A,,Mostly Cloudy,110,2012-10-23 14:00:00
3:30 PM,55.4,53.6,94,30.27,3.7,East,4.6,-,N/A,,Overcast,100,2012-10-23 14:30:00
4:00 PM,55.4,53.6,94,30.27,3.7,East,5.8,-,N/A,,Mostly Cloudy,80,2012-10-23 15:00:00
4:30 PM,55.4,53.6,94,30.27,3.7,NE,4.6,-,N/A,,Overcast,50,2012-10-23 15:30:00
5:00 PM,55.4,53.6,94,30.27,3.7,NE,4.6,-,N/A,,Overcast,40,2012-10-23 16:00:00
5:30 PM,55.4,53.6,94,30.27,3.7,NNE,5.8,-,N/A,,Overcast,20,2012-10-23 16:30:00
6:00 PM,55.4,53.6,94,30.27,3.7,North,5.8,-,N/A,,Overcast,10,2012-10-23 17:00:00
6:30 PM,55.4,53.6,94,30.27,5.0,North,4.6,-,N/A,,Overcast,10,2012-10-23 17:30:00
7:00 PM,55,54,93,30.30,6,NNE,6.7,,,,Mist,20,2012-10-23 18:00:00
7:00 PM,55.4,53.6,94,30.27,5.6,NNE,5.8,-,N/A,,Overcast,20,2012-10-23 18:00:00
7:30 PM,55.4,53.6,94,30.27,5.6,NNE,6.9,-,N/A,,Mostly Cloudy,20,2012-10-23 18:30:00
8:00 PM,55.4,53.6,94,30.27,5.6,NNE,9.2,-,N/A,,Mostly Cloudy,30,2012-10-23 19:00:00
8:30 PM,53.6,53.6,100,30.27,6.2,NNE,9.2,-,N/A,,Scattered Clouds,30,2012-10-23 19:30:00
9:00 PM,55.4,53.6,94,30.27,5.6,NNE,10.4,-,N/A,,Mostly Cloudy,30,2012-10-23 20:00:00
9:30 PM,55.4,53.6,94,30.27,5.0,NNE,8.1,-,N/A,,Mostly Cloudy,20,2012-10-23 20:30:00
10:00 PM,55.4,53.6,94,30.27,5.0,NNE,6.9,-,N/A,,Mostly Cloudy,20,2012-10-23 21:00:00
10:30 PM,55.4,53.6,94,30.27,5.0,North,8.1,-,N/A,,Mostly Cloudy,10,2012-10-23 21:30:00
11:00 PM,55.4,53.6,94,30.27,4.3,North,8.1,-,N/A,,Mostly Cloudy,10,2012-10-23 22:00:00
11:30 PM,53.6,53.6,100,30.27,4.3,North,10.4,-,N/A,,Mostly Cloudy,360,2012-10-23 22:30:00